Regional Weather Roundup
Issued by NWS Green Bay, WI

Home | Current Version | Previous Version | Text Only | Print | Product List | Glossary On
Versions: 1 2 3 4 5 6 7 8 9 10 11 12 13 14 15 16 17 18 19 20 21 22 23 24 25 26 27 28 29 30 31 32 33 34 35 36 37 38 39 40 41 42 43 44 45 46 47 48 49 50
000
ASUS43 KGRB 301110
RWRGRB

NORTH-CENTRAL AND NORTHEAST WISCONSIN REGIONAL WEATHER ROUNDUP
NATIONAL WEATHER SERVICE GREEN BAY WI
500 AM CST FRI JAN 30 2015

WIZ005-009-010>012-018-019-301200-
NORTH CENTRAL WISCONSIN

CITY           SKY/WX    TMP DP  RH WIND       PRES   REMARKS
IRONWOOD       CLOUDY    10   7  85 NW3       30.41S
MANITOWISH WTR CLOUDY     9   3  76 N6        30.40S WCI   0
ARBOR VITAE    CLOUDY    11   4  74 NW7       30.40R WCI   1
EAGLE RIVER    CLOUDY    10   2  71 N7        30.39S WCI  -2
LAND O LAKES   CLOUDY    10   4  78 N6        30.39S WCI   0
RHINELANDER    CLOUDY    11   3  70 NW5       30.39S WCI   3
PHILLIPS       CLOUDY    10   3  72 NW7       30.42S WCI  -1
ANTIGO         CLOUDY    11   4  72 NW8       30.40R WCI  -1
TOMAHAWK       CLOUDY    12   4  71 CALM      30.42S
MERRILL        CLOUDY    13   5  69 N5        30.43S WCI   5
$$

WIZ013-073-301200-
NORTHEAST WISCONSIN

CITY           SKY/WX    TMP DP  RH WIND       PRES   REMARKS
IRON MOUNTAIN  CLOUDY    10   1  67 N12       30.41R WCI  -5
MARINETTE      PTCLDY    12   0  57 N8        30.45R WCI   1
OCONTO         CLOUDY    15   4  62 CALM      30.47R
$$

WIZ017-030-035>037-045-301200-
CENTRAL WISCONSIN

CITY           SKY/WX    TMP DP  RH WIND       PRES   REMARKS
MEDFORD        CLOUDY    10   4  77 NW5       30.42F WCI   1
WAUSAU         CLOUDY    14   4  64 NW7       30.43R WCI   4
MOSINEE        NOT AVBL
MARSHFIELD     MOCLDY     9   2  73 NW8       30.45S WCI  -3
WISC RAPIDS    CLOUDY    15   4  61 NW8       30.47S WCI   4
STEVENS POINT  CLOUDY    13   2  63 NW6       30.45S WCI   4
WAUPACA        CLOUDY    19   6  58 NW7       30.46S WCI  10
SHAWANO        CLOUDY    18   4  56 NW8       30.46R WCI   7
CLINTONVILLE   CLOUDY    18   5  57 NW6       30.46R WCI   9
$$

WIZ038-039-048-051-301200-
FOX VALLEY

CITY           SKY/WX    TMP DP  RH WIND       PRES   REMARKS
NWS GREEN BAY  CLOUDY    17   5  59 N12       30.47R WCI   4
APPLETON       NOT AVBL
OSHKOSH        PTCLDY    15   4  61 NW8       30.45R WCI   4
FOND DU LAC    CLEAR     12   2  64 NW8       30.46R WCI   0
$$

WIZ022-050-052-301200-
EAST CENTRAL WISCONSIN

CITY           SKY/WX    TMP DP  RH WIND       PRES   REMARKS
STURGEON BAY   PTCLDY    12   1  62 N13       30.46R WCI  -3
MANITOWOC      CLOUDY    17   7  64 N9        30.46R WCI   6
SHEBOYGAN      MOCLDY    16   7  67 N9        30.45R WCI   4
$$

LMZ563-521-522-541>543-301200-
LAKESHORE

STATION/POSITION TIME  TEMP    WIND        PRES    VSBY  WAVE
                       AIR SEA DIR/SP/G                  HT/PER
                 (UTC) (F)     (DEG/KT/KT) (MB)    (MI)  (FT/S)
SHEBOYGAN LKSHOR 1100   19     360/ 15/ 20 1032.5R
KEWAUNEE LKSHORE 1100   15     360/  9/ 12 1030.2R
NORTHPORT PIER   1100   15     310/ 18/ 22 1030.8R
SISTER BAY LKSHO 1100   12     340/ 16/ 19   N/A
CHAMBERS ISLAND  1100   13     310/ 11/ 15 1031.2S
MENOMINEE LKSHOR 1100   14     320/ 13     1031.8S
$$



USA.gov is the U.S. government's official web portal to all federal, state and local government web resources and services.